Powrót do katalogu

THORAD DELTA 1 DEB

AktywnySSO
NORAD 8152·DEBRIS·🇺🇸 United States

Wystrzelony Nov 15, 1974 z Vandenberg Space Force Base

Loading…

Następne Przeloty (najbliższe 24 godziny)

TLE

ŚwieżeSource: Space-Track

Epoka: Sep 14, 2026, 12:07 UTC

1 08152U 74089S   26257.50523367  .00000015  00000-0  34870-3 0  9998
2 08152 101.8519 267.1284 0059297 178.4492 336.4072 12.60155883381938

Śledź THORAD DELTA 1 DEB w czasie rzeczywistym z AllMySat

Download on the App Store